星链-31794 (STARLINK-31794 )

导读 | 豆包AI

STARLINK-31794是美国太空探索技术公司(SpaceX)星链(Starlink)互联网星座的卫星,于2024年5月18日发射入轨,星链项目旨在为全球提供高速低延迟卫星互联网服务,该卫星承担星座组网任务,补充增强星座覆盖能力,为全球不同区域尤其是偏远地区用户提供互联网接入服务。

基本信息
目录编号:
59803
目录名称:
STARLINK-31794
国际标识:
2024-093X
轨道中心:
EARTH
卫星名称:
星链-31794
卫星全名:
星链-31794 (STARLINK-31794 )
卫星状态:
在轨 (已飞行666 天)
发射日期:
2024-05-18 UTC
国别 :
美国 (US)
星等 :
--
轨道信息
数据来源 国际轨道数据
星历时间: 2026-03-15T00:04:17+0800
1天前
查看轨道信息
半长轴: 6861.205km
偏心率: 0.0001344
轨道倾角: 43.004°
近地点辐角 264.515°
升交点赤经 181.060°
平近点角 95.555°
近地点: 482.145km
远地点: 483.991km
周期: 94.267分钟
每日圈数: 15.275738
详细信息
固有亮度:
5
最大亮度:
1.5
卫星平台:
Starlink v2.0 mini
覆盖范围:
全球
运营商:
太空探索技术公司
运营商所在国:
美国
制造商(研发单位):
太空探索技术公司
制造商所在国:
美国
使用方式:
暂无
卫星简介
星链(Starlink)计划是由太空探索技术公司(SpaceX)提出的一个巨型低轨卫星互联网星座项目,计划在2019年至2024年间在太空搭建由约1.2万颗卫星组成的“星链”网络,其中1584颗将部署在地球上空550千米处的近地轨道,并从2020年开始工作。该卫星仍在工作。
2D轨道图
3D轨道图
轨道高度分析图
轨道倾角分析图
轨道综合分析图
查看轨道综合分析图